sat.trackr.live / text

‹ back to catalog

KUIPER-00556

NORAD 69621 · 2026-140AF

PAYLOAD ACTIVE UNKNOWN

§ Identity

Operator
Country
US
Launch date
2026-06-17
Launch site
FRGUI
Launch vehicle
Mass (kg)
RCS (m²)

External: N2YO · Heavens-Above · Gunter

§ Orbital elements

Epoch: 2026-09-20T03:18:12.972960Z

Period
97.31 min
Inclination
51.8987°
Eccentricity
0.0000419
Mean motion
14.79775721 rev/d
Perigee alt
629.7 km
Apogee alt
630.3 km
Semi-major
7,008.2 km
B*
1.1645e-3
RAAN
308.3014°
Arg perigee
66.9991°
Mean anomaly
293.1015°
Rev number
1,572

§ Raw data

KUIPER-005561 69621U 26140AF  26263.13765015  .00008635  00000+0  11645-2 0  99942 69621  51.8987 308.3014 0000419  66.9991 293.1015 14.79775721 15723

JSON: /api/v1/satellites/69621 · /tle

For live sub-satellite position, see the globe view (requires WebGL).

§ Visibility from observer

Set your observer location to see the next 7 days of passes ≥ 10°. The values pass through the URL so the page stays shareable.

No JS? Fill the form by hand. The geolocation button needs JavaScript.